Regional Weather Roundup
Issued by NWS

Home | Current Version | Previous Version | Text Only | Print | Product List | Glossary On
Versions: 1 2 3 4 5 6 7 8 9 10 11 12 13 14 15 16 17 18 19 20 21 22 23 24 25 26 27 28 29 30 31 32 33 34 35 36 37 38 39 40 41 42 43 44 45 46 47 48 49 50
000
ASUS43 KFSD 181110
RWRSD

WEATHER ROUNDUP FOR SOUTH DAKOTA
NATIONAL WEATHER SERVICE SIOUX FALLS SD
500 AM CST SUN FEB 18 2018

NOTE: "FAIR" INDICATES FEW OR NO CLOUDS BELOW 12,000 FEET WITH NO
SIGNIFICANT WEATHER AND/OR OBSTRUCTIONS TO VISIBILITY.


SDZ001>005-009-010-012>017-181200-
NORTHWEST AND NORTH CENTRAL SOUTH DAKOTA

CITY           SKY/WX    TMP DP  RH WIND       PRES   REMARKS
BUFFALO          N/A     15  11  83 NE13      29.38F WCI   1
FAITH            N/A     15  15 100 NE12      29.44F WCI   2
MOBRIDGE       MOCLDY    23  18  81 E23       29.50F WCI   7
$$

SDZ012>016-024>037-041>051-057-063-072>074-181200-
SOUTHWEST AND SOUTH CENTRAL SOUTH DAKOTA

CITY           SKY/WX    TMP DP  RH WIND       PRES   REMARKS
RAPID CTY ARPT MOCLDY    20  17  88 N12       29.39S WCI   8
PIERRE         CLOUDY    29  24  82 SE12      29.44F WCI  19
CUSTER         CLOUDY    36  13  38 W8        29.39F
ELLSWORTH AFB  MOCLDY    19  19  99 N13       29.39F WCI   6
PHILIP         CLOUDY    29  24  82 NW7       29.39F WCI  22
PINE RIDGE     CLOUDY    39  23  52 S23G33    29.43F
SPEARFISH        N/A     18  18 100 NW10      29.41R WCI   6
WINNER         FAIR      42  22  44 S29G37    29.46F
$$

SDZ004>011-016>023-039-040-181200-
NORTHEAST SOUTH DAKOTA

CITY           SKY/WX    TMP DP  RH WIND       PRES   REMARKS
ABERDEEN       CLOUDY    25  18  74 E17       29.65F WCI  12
WATERTOWN      CLOUDY    24  19  81 SE13G22   29.66F WCI  12
BROOKINGS      CLOUDY    25  22  88 SE24G30   29.71F WCI   9
SISSETON         N/A     21  16  81 SE14      29.76F WCI   8
$$

SDZ017-020-022-023-036>040-048>070-181200-
SOUTHEAST SOUTH DAKOTA

CITY           SKY/WX    TMP DP  RH WIND       PRES   REMARKS
SIOUX FALLS    MOCLDY    30  22  72 SE23G30   29.74F WCI  17
HURON          CLOUDY    29  24  82 SE20G32   29.60F WCI  16
CHAMBERLAIN    CLOUDY    39  26  58 S21G26    29.50F
MITCHELL       MOCLDY    30  25  81 SE26G36   29.60F WCI  16
YANKTON        CLEAR     29  24  82 SE20      29.71F WCI  16
$$

ABBREVIATIONS USED IN REMARKS
   TC - TEMPERATURE IN CELSIUS
  WCI - WIND CHILL INDEX
   HX - HEAT INDEX
  VSB - VISIBILITY




USA.gov is the U.S. government's official web portal to all federal, state and local government web resources and services.